Flag for Ecuador Weather past 2 weeks in Cuenca, Ecuador

Now
59 °F

Partly sunny.


Feels Like: 58 °F
Forecast: N/A
Wind: 7 mph from North

Location: Cuenca / Mariscal Lamar

Current Time: Aug 1, 2015 at 6:10:39 PM

Latest Report: Aug 1, 2015 at 6:00 PM


Visibility: N/A

Pressure: 30.24 "Hg (22.34 "Hg at 2554m altitude)

Humidity: 68%

Dew point: 48 °F

Location of CuencaLocation

Historic Weather in Cuenca — Graph

°F

Cuenca temperature yesterday

Maximum temperature yesterday: 57 °F (at 11:00 AM)
Minimum temperature yesterday: 52 °F (at 6:00 AM)
Average temperature yesterday: 55 °F

Past Weeks' High & Low Weather Summary

 TemperatureHumidityPressure
High75 °F (Jul 20, 3:00 PM)100% (Jul 19, 6:00 AM)30.42 "Hg (Jul 19, 6:00 AM)
Low46 °F (Jul 20, 6:00 AM)36% (Jul 20, 1:00 PM)30.21 "Hg (Jul 21, 3:00 PM)
Average59 °F72%30.32 "Hg
* Reported Jul 17 5:00 PM — Aug 1 5:00 PM, Cuenca, Weather by CustomWeather, © 2015

Note: Actual official high and low records may vary slightly from our data, if they occured in-between our weather recording intervals... More about our weather records

Advertising

Cuenca weather history for previous 24 hours

 ConditionsComfort  
Time TempWeatherWind HumidityBarometerVisibility
5:00 PM
Sat, Aug 1
61 °FPartly sunny.8 mph63%30.24 "HgN/A
4:00 PM61 °FPartly sunny.13 mph59%30.24 "HgN/A
2:00 PM64 °FPartly sunny.12 mph52%30.30 "HgN/A
1:00 PM64 °FPartly sunny.16 mph52%30.33 "HgN/A
12:00 PM66 °FPartly sunny.13 mph49%30.33 "HgN/A
11:00 AM63 °FBroken clouds.9 mph56%30.36 "HgN/A
10:00 AM63 °FBroken clouds.9 mph56%30.36 "HgN/A
9:00 AM59 °FScattered clouds.2 mph72%30.36 "HgN/A
8:00 AM54 °FPartly sunny.3 mph88%30.36 "HgN/A
7:00 AM52 °FPartly sunny.2 mph94%30.33 "HgN/A
6:00 AM52 °FOvercast.1 mph94%30.30 "HgN/A
10:00 PM
Fri, Jul 31
54 °FOvercast.2 mph82%30.36 "HgN/A
9:00 PM54 °FOvercast.3 mph77%30.33 "HgN/A
8:00 PM55 °FPassing clouds.5 mph72%30.30 "HgN/A
7:00 PM55 °FPassing clouds.5 mph72%30.30 "HgN/A
6:00 PM55 °FPartly sunny.6 mph72%30.30 "HgN/A
Weather by CustomWeather, © 2015

See weather overviewHow to use our weather pages